Location: Schommer Observatory
(40.5200°N, 74.4500°W)
Time: 05:24:51
(UTC-04:00)

Vanguard 1 - All Passes

Search period start: 18 October 2017 00:00
Search period end: 28 October 2017 00:00
Orbit: 650 x 3834 km, 34.3° (Epoch: 17 October)

Date Brightness Start Highest point End Pass type
(mag) Time Alt. Az. Time Alt. Az. Time Alt. Az.
18 Oct - 00:28:33 10° SSW 00:40:18 43° SE 00:59:06 10° E visible
18 Oct - 02:47:41 10° WSW 03:03:51 70° SSE 03:27:17 10° E visible
18 Oct - 05:10:00 10° W 05:30:26 70° SSW 05:53:00 10° ESE visible
18 Oct - 07:35:00 10° W 07:56:13 47° SW 08:14:34 10° SSE daylight
18 Oct - 10:06:16 10° W 10:18:22 18° SW 10:28:42 10° SSW daylight
18 Oct - 22:34:17 10° SSE 22:40:57 17° SE 22:49:50 10° E night (unlit)
19 Oct - 00:48:48 10° SW 01:01:02 50° SSE 01:21:04 10° E visible
19 Oct - 03:08:40 10° WSW 03:25:18 72° S 03:48:55 10° E visible
19 Oct - 05:31:20 10° W 05:51:57 66° SSW 06:14:06 10° ESE visible
19 Oct - 07:56:54 10° W 08:17:04 40° SW 08:34:33 10° SSE daylight
19 Oct - 10:33:33 10° WSW 10:38:37 11° WSW 10:43:21 10° SW daylight
19 Oct - 22:52:56 10° S 23:01:06 24° SE 23:13:10 10° E visible
20 Oct - 01:09:18 10° SW 01:21:57 58° SSE 01:42:56 10° E visible
20 Oct - 03:29:46 10° W 03:46:50 73° S 04:10:31 10° ESE visible
20 Oct - 05:52:44 10° W 06:13:21 60° SSW 06:35:00 10° SE visible
20 Oct - 08:19:07 10° W 08:37:46 32° SW 08:54:05 10° S daylight
20 Oct - 23:12:23 10° SSW 23:21:24 31° SE 23:35:44 10° E visible
21 Oct - 01:29:59 10° WSW 01:43:03 64° SSE 02:04:44 10° E visible
21 Oct - 03:50:54 10° W 04:08:23 72° S 04:32:00 10° ESE visible
21 Oct - 06:14:13 10° W 06:34:37 54° SSW 06:55:38 10° SE visible
21 Oct - 08:41:53 10° W 08:58:21 25° SW 09:13:00 10° S daylight
21 Oct - 23:32:19 10° SSW 23:41:52 39° SE 23:57:55 10° E visible
22 Oct - 01:50:48 10° WSW 02:04:17 68° SSE 02:26:31 10° E visible
22 Oct - 04:12:06 10° W 04:29:56 69° SSW 04:53:22 10° ESE visible
22 Oct - 06:35:48 10° W 06:55:45 47° SSW 07:15:59 10° SSE visible
22 Oct - 09:05:39 10° W 09:18:50 19° SW 09:30:51 10° SSW daylight
22 Oct - 21:39:00 10° SSE 21:43:16 13° SE 21:48:33 10° E night (unlit)
22 Oct - 23:52:34 10° SW 00:02:31 47° SSE 00:19:53 10° E visible
23 Oct - 02:11:44 10° WSW 02:25:37 71° S 02:48:15 10° E visible
23 Oct - 04:33:19 10° W 04:51:25 65° SSW 05:14:33 10° ESE visible
23 Oct - 06:57:35 10° W 07:16:44 40° SW 07:35:57 10° SSE daylight
23 Oct - 09:32:07 10° WSW 09:39:15 12° SW 09:46:04 10° SW daylight
23 Oct - 21:57:14 10° S 22:03:24 20° SE 22:12:14 10° E night (unlit)
24 Oct - 00:13:01 10° SW 00:23:20 55° SSE 00:41:46 10° E visible
24 Oct - 02:32:44 10° W 02:47:03 72° S 03:09:56 10° ESE visible
24 Oct - 04:54:36 10° W 05:12:49 59° SSW 05:35:30 10° SE visible
24 Oct - 07:19:42 10° W 07:37:36 32° SW 07:55:27 10° SSE daylight
24 Oct - 22:16:35 10° S 22:23:41 27° SE 22:34:51 10° E night (unlit)
25 Oct - 00:33:40 10° WSW 00:44:20 61° SSE 01:03:35 10° E visible
25 Oct - 02:53:47 10° W 03:08:29 70° S 03:31:30 10° ESE visible
25 Oct - 05:15:58 10° W 05:34:07 53° SSW 05:56:11 10° SE visible
25 Oct - 07:42:21 10° W 07:58:22 25° SW 08:14:17 10° S daylight
25 Oct - 22:36:27 10° SSW 22:44:07 35° SE 22:57:00 10° E night (unlit)
26 Oct - 00:54:26 10° WSW 01:05:28 66° SSE 01:25:22 10° E visible
26 Oct - 03:14:52 10° W 03:29:57 67° S 03:52:56 10° ESE visible
26 Oct - 05:37:27 10° W 05:55:20 46° SSW 06:16:32 10° SSE visible
26 Oct - 08:06:01 10° W 08:19:03 19° SW 08:32:01 10° SSW daylight
26 Oct - 22:56:41 10° SW 23:04:42 44° SSE 23:18:56 10° E visible
27 Oct - 01:15:19 10° WSW 01:26:42 69° S 01:47:08 10° E visible
27 Oct - 03:36:00 10° W 03:51:22 63° SSW 04:14:11 10° ESE visible
27 Oct - 05:59:09 10° W 06:16:26 38° SW 06:36:28 10° SSE visible
27 Oct - 08:32:18 10° WSW 08:39:42 12° SW 08:47:06 10° SSW daylight
27 Oct - 21:01:54 10° SSE 21:06:13 16° SE 21:11:55 10° E night (unlit)
27 Oct - 23:17:06 10° SW 23:25:28 51° SSE 23:40:45 10° E visible
